Weather Roundup
Issued by NWS Springfield, MO

Home | Current Version | Previous Version | Text Only | Print | Product List | Glossary On
Versions: 1 2 3 4 5 6 7 8 9 10 11 12 13 14 15 16 17 18 19 20 21 22 23 24 25 26 27 28 29 30 31 32 33 34 35 36 37 38 39 40 41 42 43 44 45 46 47 48 49 50
000
NZUS99 KSGF 281357
HRRSGF

HOURLY WEATHER
NATIONAL WEATHER SERVICE SPRINGFIELD MO
900 AM CDT THU JUL 28 2016

......SGF CWA......

CITY           SKY/WX    TMP DP  RH WIND       PRES   REMARKS
SPRINGFIELD    CLOUDY    78  72  81 W6        29.99R
JOPLIN         MOSUNNY   80  75  84 SW7       29.99S
WEST PLAINS    PTSUNNY   74  72  93 W6        29.99S
ROLLA          MOSUNNY   76  73  91 NW7       29.95R
OSAGE BEACH    PTSUNNY   79  73  83 W7        29.97R
BRANSON        MOSUNNY   75  73  94 CALM      30.01S

......SURROUNDING SGF CWA......

CITY           SKY/WX    TMP DP  RH WIND       PRES   REMARKS
CHANUTE        PTSUNNY   80  75  84 N8        29.99R
PARSONS        MOSUNNY   82  75  79 NW7       30.00R
COFFEYVILLE    MOSUNNY   82  76  81 N6        29.99R
EMPORIA        PTSUNNY   79  71  76 CALM      30.01S THUNDER
ROGERS AR      PTSUNNY   75  73  94 SW6       30.02S
HARRISON AR    SUNNY     79  73  82 NW8       30.01R

......KANSAS AND MISSOURI......

CITY           SKY/WX    TMP DP  RH WIND       PRES   REMARKS
KANSAS CTY INT CLOUDY    74  71  91 N7        29.99R
SEDALIA        SUNNY     81  74  79 W7        29.97R
ST JOSEPH      MOSUNNY   75  71  87 N8        30.00R
ST LOUIS       MOSUNNY   82  71  69 W8        29.91S
WICHITA        PTSUNNY   83  68  60 N6        29.99F
TOPEKA         MOSUNNY   78  71  79 CALM      30.00S
OLATHE         SUNNY     78  71  79 N7        29.99R

......TENNESSEE......

CITY           SKY/WX    TMP DP  RH WIND       PRES   REMARKS
MEMPHIS        NOT AVBL
NASHVILLE      CLOUDY    77  73  87 S8        29.94S

......ARKANSAS.......

CITY           SKY/WX    TMP DP  RH WIND       PRES   REMARKS
FAYETTEVILLE   PTSUNNY   76  75  97 VRB5      30.01S
FT SMITH       MOSUNNY   81  72  74 W3        29.97S
LITTLE ROCK    CLOUDY    80  74  81 W6        29.97R

......OKLAHOMA.......

CITY           SKY/WX    TMP DP  RH WIND       PRES   REMARKS
TULSA          MOSUNNY   83  76  79 W5        29.98R HX  91
PONCA CITY     SUNNY     81  71  71 CALM      29.99F
MCALESTER      PTSUNNY   79  73  82 SW6       30.00S
OKLAHOMA CITY  MOSUNNY   80  74  81 CALM      30.01F

......IOWA............

CITY           SKY/WX    TMP DP  RH WIND       PRES   REMARKS
DES MOINES     NOT AVBL
QUAD CITIES    SUNNY     80  69  69 CALM      29.90F

......ILLINOIS........

CITY           SKY/WX    TMP DP  RH WIND       PRES   REMARKS
QUINCY         NOT AVBL
CHICAGO        PTSUNNY   80  69  69 VRB5      29.91F




USA.gov is the U.S. government's official web portal to all federal, state and local government web resources and services.